Miscellaneous Local Product
Issued by NWS North Platte, NE

Home | Current Version | Previous Version | Text Only | Print | Product List | Glossary On
Versions: 1 2 3 4 5 6 7 8 9 10 11 12 13 14 15 16 17 18 19 20 21 22 23 24 25 26 27 28 29 30 31 32 33 34 35 36 37 38 39 40 41 42 43 44 45 46 47 48 49 50
577
AXUS43 KLBF 172010
MISLBF


WESTERN AND NORTH CENTRAL NEBRASKA HOURLY WEATHER ROUNDUP
NATIONAL WEATHER SERVICE NORTH PLATTE NE
200 PM CST TUE JAN 17 2017

NOTE: "FAIR" INDICATES FEW OR NO CLOUDS BELOW 12,000 FEET WITH NO
SIGNIFICANT WEATHER AND/OR OBSTRUCTIONS TO VISIBILITY.

NOTE: STATIONS NOT REPORTING VARIABLES SUCH AS SKY/WEATHER OR
PRESSURE ARE PROVIDED BY RAWS AND APRS NETWORKS AND ARE NOT UNDER
NATIONAL WEATHER SERVICE QUALITY CONTROL.

...OBSERVATIONS IN AND NEAR THE EASTERN PANHANDLE OF NEBRASKA...

CITY           SKY/WX    TMP DP  RH WIND       PRES   REMARKS
PINE RIDGE     CLOUDY    35  17  47 W3        29.94F
CHADRON        CLOUDY   N/A N/A N/A CALM      29.95F
ALLIANCE       SUNNY     43  13  29 W17       29.96F
SIDNEY         SUNNY     43  26  51 SW14      29.99F
CRESCENT LAKE    N/A     41  21  44 SW9G16      N/A
$$

...OBSERVATIONS IN NORTHERN NEBRASKA AND FAR SOUTHERN SOUTH DAKOTA...

CITY           SKY/WX    TMP DP  RH WIND       PRES   REMARKS
WINNER         FAIR      49  22  34 SW9       29.95F
VALENTINE      SUNNY     51  11  20 SW13      29.95F
THEDFORD       SUNNY     49  20  31 SW16G22   29.99F
AINSWORTH      SUNNY     48  24  38 SW10      29.97F
O`NEILL        SUNNY     42  33  72 SW6       30.00F
ORD            SUNNY     36  28  73 SW5       30.01F WCI  32
BROKEN BOW     SUNNY     39  29  67 SW5       30.01F
VALENTINE NWR    N/A     48  17  29 SW10        N/A
BUTTE            N/A     41  26  54 SW5         N/A
HALSEY           N/A     50  19  29 SW6         N/A
SARGENT          N/A     42  34  72 SW5         N/A
CHAMBERS         N/A     41  34  76 CALM        N/A
EWING            N/A     37  33  87 W3          N/A
$$

...OBSERVATIONS IN SOUTHWEST NEBRASKA AND FAR NORTHEAST COLORADO...

CITY           SKY/WX    TMP DP  RH WIND       PRES   REMARKS
WRAY           FAIR      45  21  39 SW7       30.04
HOLYOKE        FAIR      45  27  49 SW7       30.03F
IMPERIAL       SUNNY     42  25  50 W7        30.03F
OGALLALA       SUNNY     40  28  61 W8        30.02F WCI  35
NORTH PLATTE   SUNNY     43  27  53 W8        30.03F
MCCOOK         SUNNY     43  28  55 W9        30.05F
LEXINGTON      SUNNY     42  31  64 NW3       30.04F
STAPLETON        N/A     44  29  54 CALM        N/A
GOTHENBURG       N/A     43  28  54 W5          N/A
CALLAWAY         N/A     41  32  69 W12         N/A
$$

...OBSERVATIONS IN CENTRAL LINCOLN COUNTY AREA...

CITY           SKY/WX    TMP DP  RH WIND       PRES   REMARKS
N.P. AIRPORT   SUNNY     43  27  53 W8        30.03F
N.P. DOWNTOWN    N/A     41  28  60 MISG        N/A
N.P. SOUTHEAST   N/A     43  26  51 MISG        N/A
N.P. HILLCREST   N/A     40  28  61 W9          N/A  WCI  34
$$

...SOME OBSERVATIONS FROM AROUND THE REGION...

CITY           SKY/WX    TMP DP  RH WIND       PRES   REMARKS
LARAMIE        CLOUDY    16  11  80 NW3       30.05F
CHEYENNE       SUNNY     50   3  14 W7        29.97F
DENVER         MOSUNNY   42  26  53 SW5       29.99F
AKRON          SUNNY     38  29  70 W10       30.00F WCI  31
SCOTTSBLUFF    SUNNY     43  21  41 NW7       29.97F
RAPID CITY     SUNNY     31  20  63 CALM      29.88F
BISMARCK       CLOUDY    22  14  71 E3        29.83F
PIERRE         CLOUDY    23  15  71 S6        29.93F WCI  16
SIOUX FALLS    SUNNY     30  22  72 W8        30.01F WCI  22
OMAHA          CLOUDY    31  26  82 W9        30.07S FOG     WCI  23
GRAND ISLAND   SUNNY     36  33  89 W7        30.05F WCI  30
KANSAS CITY    CLOUDY    37  33  85 W8        30.09S WCI  31
WICHITA        SUNNY     49  32  52 NW7       30.11F
OKLAHOMA CITY  MOSUNNY   52  30  43 NW12      30.12F
DALLAS         CLOUDY    50  37  61 CALM      30.16F
AMARILLO       SUNNY     51  34  52 NW8       30.11F
DODGE CITY     SUNNY     46  31  55 W8        30.11F
HAYS           SUNNY     44  30  57 W9        30.10F
GOODLAND       SUNNY     43  29  57 SW9       30.04F
$$




USA.gov is the U.S. government's official web portal to all federal, state and local government web resources and services.